Погода в Таразе

Погода в Таразе : погода сейчас, прогноз погоды и архив. Всё, что Вы хотите узнать о погоде в Таразе!

Поиск расширенной информации на нашем сайте:

Другие новости

Новости СМИ2

Главная страница сайта

Новости сайта

02.10.2013

Напоминаем, что на нашем новом сайте вы можете получить высокодетализированные прогнозы погоды по пунктам России, СНГ и мира (включающие важные для авиации метеовеличины, такие как направление и скорость ветра, видимость, явления погоды, количество и форма облачности, нижняя и верхняя граница облачности), а также ознакомиться с разнообразными материалами по авиационной метеорологии и подборкой полезных ссылок на эту тему.

Сайт Метеоцентр.Азия посвящён разработке технологий оптимизации авиаметеорологического обслуживания, включая проектирование и перспективное создание нескольких автоматизированных авиаметеорологических систем:
- система выпуска высокодетальных прогностических карт явлений погоды для нижнего воздушного пространства по России и ближнему зарубежью;
- система верификации прогнозов TAF (выпускаемых синоптиками официальных АМСГ РФ и ближнего зарубежья) и AUTOTAF (выпускаемых сайтом Метеоцентр.Азия) - выявление ошибок, онлайн-сопоставление с фактической погодой METAR, автоматическое внесение коррективов в прогнозы при резком отклонении фактической погоды от прогноза, подсчёт оправдываемости прогнозов по элементам и в целом;
- система обработки, анализа и отображения авиаметеорологической информации для применения провайдерами метеорологической информации.

Рекомендуем: Тариф защита ddos.

Погода в Таразе - сегодня

Время (UTC), дата Ветер
(°,м/с) 
Видим.   Явления Облачность Т
(°С)
Тd
(°С)
f(%) Тe
(°С)
Pmin
(гПа)
dP
(гПа)
Po
(мм)
O2
(г/м3)
Тmin Tmax R s Состояние
почвы
00 24.03.17 230 (ЮЗ) 10 км    ясно 
+6.2 +3.8 85 +6  1021.1  -1.1  708  278           
03 24.03.17 260 (З) 20000 м    10/4 1000 м средняя 
[Sc diur, vesp|Ac As]
+6.8 +3.5 79 +8  1021.4  0.5  708  278           
06 24.03.17 330 (СЗ) 20000 м    10/3 1000 м средняя 
[Sc diur, vesp|Ac trans]
+14.2 +5.3 55 +15  1018.3  -0.9  707  270  +5.3         
09 24.03.17 050 (СВ) 20000 м    10/6 1000 м средняя 
[Sc diur, vesp|Ac lent]
+14.4 +5.8 56 +14  1015.6  -2.5  706  269           
12 24.03.17 340 (С) 20000 м    10/4 1000 м средняя 
[Sc diur, vesp|Ac lent]
+11.7 +7.6 76 +11  1016.8  0.5  706  271           
15 24.03.17 350 (С) 10 км    10/3 1000 м средняя 
[Sc diur, vesp|Ac lent]
+9 +5.5 79 +8  1020.2  2.4  708  275    +15.2       
18 24.03.17 тихо ()   10 км    10/6 1000 м средняя 
[Sc diur, vesp|Ac lent]
+7 +4 81 +7  1021.8  0.9  708  278    +15.2       
21 24.03.17 тихо ()   10 км    10/4 1000 м средняя 
[Sc diur, vesp|Ac lent]
+6.5 +3.4 81 +7  1021.4  0.5  708  278           
00 25.03.17 030 (СВ) 10 км    10/4 1000 м средняя 
[Sc diur, vesp|Ac lent]
+5.2 +2.7 84 +5  1022.4  -0.6  709  280           
03 25.03.17 040 (СВ) 0200 м  туман  ?/?  
+4.6 +3.1 90 +4  1022.9  0.3  709  280           
06 25.03.17 тихо ()   4000 м  дымка{туман}  10/0 средняя 
[Ac As]
+7.1 +4.8 85 +7  1020.9  -1.2  708  277  +4.6         
09 25.03.17 290 (З) 20000 м    10/8 1000 м средняя 
[Sc diur, vesp|Ac lent]
+10.3 +6.2 76 +10  1018.4  -1.4  707  273           
12 25.03.17 270 (З) 20000 м    10/10 1000 м 
[Sc diur, vesp]
+9 +6.4 84 +8  1019.1  0.2  707  275           
15 25.03.17 260 (З) 10 км    10/10 1000 м 
[Sc diur, vesp]
+7.4 +5.6 88 +7  1019.7  0.1  707  276    +11.1       
18 25.03.17 тихо ()   10 км    10/10 1000 м 
[Sc diur, vesp]
+7.2 +5.6 90 +7  1020.2  0.5  707  277    +11.1       
21 25.03.17 тихо ()   10 км    10/8 1000 м средняя 
[Sc diur, vesp|Ac lent]
+6.8 +5.5 91 +7  1018.2  -2  706  277           
00 26.03.17 240 (ЮЗ) 10 км    10/8 1000 м средняя 
[Sc diur, vesp|Ac lent]
+7.5 +5.9 90 +8  1018.3  0.3  706  276           
03 26.03.17 250 (З) 20000 м    10/10 1000 м 
[Sc diur, vesp]
+8 +4.8 80 +7  1020.8  2.5  708  276           
06 26.03.17 040 (СВ) 20000 м  {ливн. осадки}  10/10 600 м кучево-дожд. 
[Cb cap]
+6.8 +4.5 85 +6  1023.2  1.8  709  278  +6.4         
09 26.03.17 030 (СВ) 20000 м    10/8 1000 м средняя 
[Sc diur, vesp|Ac As]
+5.2 +1.6 78 +5  1023.6  -0.1  709  280           
12 26.03.17 060 (СВ) 10 км    10/10 1000 м 
[Sc diur, vesp]
+4.2 +1.9 85 +5  1024.9  0.9  710  281           
15 26.03.17 050 (СВ) 10 км    10/6 1000 м средняя 
[Sc diur, vesp|Ac As]
+4.2 +2.2 87 +5  1025  0.1  710  281    +8.7     
18 26.03.17 050 (СВ) 10 км    10/8 1000 м средняя 
[Sc diur, vesp|Ac As]
+3.8 +2 88 +3  1026.3  1.1  711  282    +8.7     
21 26.03.17 030 (СВ) 10 км    10/4 1000 м средняя 
[Sc diur, vesp|Ac As]
+3.7 +2.2 90 +5  1026.3  -0.1  711  282           
00 27.03.17 050 (СВ) 10 км    10/6 1000 м средняя 
[Sc diur, vesp|Ac As]
+3.1 +2.1 93 +3  1024.9  -1.3  710  282           
Время (UTC), дата Ветер
(°,м/с) 
Видим.   Явления Облачность Т
(°С)
Тd
(°С)
f(%) Тe
(°С)
Pmin
(гПа)
dP
(гПа)
Po
(мм)
O2
(г/м3)
Тmin Tmax R s Состояние
почвы

Для получения пояснительной информации подведите курсор к названию столбца.

ПОГОДА в Таразе - архив

Всё, что Вы хотите узнать о погоде в Таразе - удобно и подробно!

Выберите нужную дату (начиная с 1 января 2015* года) и нажмите кнопку "Найти".
Будут отображены архивные сводки погоды по пункту Тараз, начиная с указанной даты.


Отображать данные в формате CSV (для использования в таблицах Excel)


Внимание! Наш архив погоды предназначен исключительно для личного некоммерческого использования в познавательных целях. Если Вам необходимы официальные справки о состоянии погоды (для производственных, юридических, коммерческих и т.п. целей), обращайтесь в органы Росгидромета.

*Примечание: данная дата относится к архиву по метеостанциям СССР (Россия, СНГ, Балтия).
Архив по метеостанциям Зарубежной Европы и Азии (кроме Китая) хранится 10 дней, по другим регионам земного шара (Китай, Африка, Америка, Австралия, Океания) - 1 день.

Тараз - район местоположения метеостанции


Название, широта, долгота, высота метеостанции:
Тараз (город) 42.9°ш. 71.4°д. 651 м над ур. моря [Казахстан]

Дополнительная информация

В oтличие oт бoльшинства пoгoдных сайтoв мы публикуем пoдрoбную метеoинфoрмацию в детальнoм прoфессиoнальнoм фoрмате.

Характеристики температуры и влажнoсти вoздуха измеряются на высoте 2 м в тени вдали oт зданий и деревьев.
Скoрoсть ветра измеряется на высoте 10 м (на урoвне рoста челoвека скoрoсть ветра ниже в 1.5-2 раза). Если метеoстанция нахoдится в гoрoде или в лесу, тo скoрoсть ветра занижена на 2-4 м/с пo сравнению с oткрытым местoм. Скoрoсть ветра над акватoриями крупных рек и oзёр, а также на вершинах хoлмoв на 2-5 м/с выше, чем в oбычных услoвиях.
Атмoсфернoе давление в разных тoчках местнoсти мoжет значительнo oтличаться oт давления на метеoстанции, в зависимoсти oт услoвий рельефа (при пoдъёме на 10 м давление пoнижается примернo на 1 мм рт.ст.).